Regional Weather Roundup
Issued by NWS

Home | Current Version | Previous Version | Graphics & Text | Print | Product List | Glossary On
Versions: 1 2 3 4 5 6 7 8 9 10 11 12 13 14 15 16 17 18 19 20 21 22 23 24 25 26 27 28 29 30 31 32 33 34 35 36 37 38 39 40 41 42 43 44 45 46 47 48 49 50
000
ASUS43 KDMX 201406
RWRIA

WEATHER ROUNDUP FOR IOWA
NATIONAL WEATHER SERVICE DES MOINES IA
900 AM CDT THU JUL 20 2017

NOTE: "FAIR" INDICATES FEW OR NO CLOUDS BELOW 12,000 FEET WITH NO
SIGNIFICANT WEATHER AND/OR OBSTRUCTIONS TO VISIBILITY.

* - THESE STATIONS ARE NOT NWS STATIONS...THUS NOT UNDER NWS
QUALITY CONTROL.  THEY ALSO DO NOT REPORT WEATHER SUCH
AS PRECIPITATION OR FOG.

IAZ001>003-012>014-020>022-031>034-043>046-201500-
   NORTHWEST IOWA

CITY           SKY/WX    TMP DP  RH WIND       PRES   REMARKS
CARROLL *      SUNNY     84  73  70 N7        29.97R HX  91
CHEROKEE *     MOSUNNY   78  71  78 NE7       29.99R HX  80
DENISON *      SUNNY     82  73  74 MISG      29.98S HX  88
ORANGE CITY *  MOSUNNY   77  70  78 E10       29.99S
SHELDON *      PTSUNNY   77  68  73 E8G16     29.98F
SIOUX CITY     CLOUDY    83  76  79 NE8       29.96R HX  91
SPENCER        MOSUNNY   79  68  69 NE15      30.00S HX  81
STORM LAKE *   MOSUNNY   77  70  78 NE13      30.00R
$$

IAZ055>058-069>071-079>083-090>094-201500-
   SOUTHWEST IOWA

CITY           SKY/WX    TMP DP  RH WIND       PRES   REMARKS
ATLANTIC *     MOSUNNY   82  73  74 SW9       29.97F HX  88
AUDUBON *      MOSUNNY   82  73  74 SW5       29.99R HX  88
CLARINDA *     SUNNY     81  75  83 S7        30.01S HX  86
COUNCIL BLFS * PTSUNNY   82  73  74 VRB6      29.97S HX  88
CRESTON *      SUNNY     82  72  69 SW12G17   30.01F HX  87
HARLAN  *      SUNNY     81  73  78 CALM      30.01R HX  85
LAMONI         MOSUNNY   81  73  76 SW12      30.01F HX  86
RED OAK *      CLOUDY    82  73  74 SW9       29.99R HX  88
SHENANDOAH *   SUNNY     82  73  74 S8        29.99S HX  88
$$

IAZ047>049-059>061-072>074-084-201500-
   CENTRAL IOWA

CITY           SKY/WX    TMP DP  RH WIND       PRES   REMARKS
AMES           CLOUDY    82  75  79 SW6       29.96S HX  89
ANKENY *       SUNNY     84  72  65 W7        29.97R HX  89
BOONE *        SUNNY     82  73  74 W6        29.96S HX  88
CHARITON *     SUNNY     84  72  65 SW12G18   29.99R HX  89
DES MOINES     MOSUNNY   86  71  60 W12       29.96R HX  91
GRINNELL*      CLOUDY    81  73  76 W8        29.99R HX  85
KNOXVILLE *    SUNNY     82  72  69 W13       29.96S HX  87
MARSHALLTOWN   CLOUDY    80  74  81 CALM      29.97R HX  85
NEWTON *       SUNNY     82  73  74 W7        29.97S HX  88
PELLA *        SUNNY     85  71  64 W8        29.98R HX  90
PERRY *          N/A     83  74  73 W8        29.96S HX  90
$$

IAZ004>006-015-016-023>025-035-036-201500-
   NORTH CENTRAL IOWA

CITY           SKY/WX    TMP DP  RH WIND       PRES   REMARKS
ALGONA *       SUNNY     77  73  88 NE10      29.99S
CLARION *      SUNNY     79  75  89 CALM      29.98R HX  82
ESTHERVILLE    MOSUNNY   74  70  87 N9        30.02R
FORT DODGE *   SUNNY     79  72  78 NE7       29.98S HX  82
MASON CITY     CLOUDY    76  73  91 NE9       30.00R FOG
FOREST CITY *  CLOUDY    75  73  94 NE6       29.99S
WEBSTER CITY * SUNNY     82  75  78 NE5       29.95R HX  89
IOWA FALLS *     N/A     81  75  83 E3        29.98S HX  86
$$

IAZ007>011-017>019-026>030-037>042-050>054-066-201500-
   NORTHEAST IOWA

CITY           SKY/WX    TMP DP  RH WIND       PRES   REMARKS
CEDAR RAPIDS   PTSUNNY   78  78 100 SE5       29.98S HX  81
CHARLES CITY * CLOUDY    73  73 100 E7        29.99R
CLINTON *      CLOUDY    74  71  91 S8        30.03S
DECORAH *        N/A     72  68  88 SE7       29.99F
DUBUQUE        CLOUDY    70  68  93 S10       30.01S
MONTICELLO *   CLOUDY    75  70  83 SE5G12    29.99F
OELWEIN *      PTSUNNY   73  72  94 SE15      29.99S
WATERLOO       CLOUDY    80  74  81 SE8       29.95S HX  85
$$

IAZ064-065-067-068-078-201500-
   EAST CENTRAL IOWA

CITY           SKY/WX    TMP DP  RH WIND       PRES   REMARKS
DAVENPORT      MOSUNNY   74  70  87 SE9       30.02F
IOWA CITY      CLOUDY    81  75  82 SE6       30.00S HX  87
MT. PLEASANT * MOSUNNY   85  71  63 SW13G20   29.98F HX  90
MUSCATINE *    CLOUDY    81  73  78 E5        30.00F HX  85
QUAD CITIES    PTSUNNY   76  71  85 SE10      30.00F
$$

IAZ062-063-075>077-085>089-095>099-201500-
   SOUTHEAST IOWA

CITY           SKY/WX    TMP DP  RH WIND       PRES   REMARKS
BURLINGTON     PTSUNNY   82  73  74 SW12G20   30.00S HX  87
FAIRFIELD *    SUNNY     84  72  65 SW17G24   29.98R HX  89
FORT MADISON * MOSUNNY   81  73  78 SW10G17   30.01S HX  85
KEOKUK *       PTSUNNY   82  73  74 SW12      30.01S HX  88
OSKALOOSA *      N/A     84  72  67 W13       29.98R HX  90
CENTERVILLE *    N/A     82  73  74 SW12G18   30.03S HX  88
OTTUMWA        SUNNY     87  71  58 W15       29.97S HX  93
WASHINGTON *   CLOUDY    81  75  83 CALM      30.01R HX  86
$$

ABBREVIATIONS USED IN REMARKS
   TC - TEMPERATURES IN CELSIUS
  WCI - WIND CHILL INDEX
   HX - HEAT INDEX
  VSB - VISIBILITY
$$





USA.gov is the U.S. government's official web portal to all federal, state and local government web resources and services.